Houghton, MI

7:00 PM EDT on May 24, 2017 (GMT -0400)
Houghton County Memorial

Weather History for KCMX - September, 2013

Change the Weather History Date:

Wednesday, September 18, 2013

  Actual Average Record
Temperature  
Mean Temperature 59 °F -  
Max Temperature 66 °F 64 °F 85 °F (1955)
Min Temperature 52 °F 47 °F 33 °F (1956)
Degree Days  
Heating Degree Days 6    
Growing Degree Days 9 (Base 50)    
Moisture  
Dew Point 56 °F    
Average Humidity 86    
Maximum Humidity 94    
Minimum Humidity 75    
Precipitation  
Precipitation 0.00 in - - ()
Sea Level Pressure  
Sea Level Pressure 29.91 in    
Wind  
Wind Speed 6 mph (SSE)    
Max Wind Speed 9 mph    
Max Gust Speed -    
Visibility 8 miles    
Events Rain    
Averages and records for this station are not official NWS values.
T = Trace of Precipitation, MM = Missing Value Source: NWS Daily Summary

Daily Weather History Graph

Daily Weather History Graph

Search for Another Location

Airport or City:

Trip Planner

Search our weather history database for the weather conditions in past years. The results will help you decide how hot, cold, wet, or windy it might be!

Date:

Astronomy

Sep. 18, 2013 Rise Set
Actual Time 7:35 AM EDT 7:59 PM EDT
Civil Twilight 7:05 AM EDT 8:29 PM EDT
Nautical Twilight 6:28 AM EDT 9:05 PM EDT
Astronomical Twilight 5:51 AM EDT 9:43 PM EDT
Moon 7:20 PM EDT (9/18) 6:37 AM EDT (9/18)
Length of Visible Light 13h 24m
Length of Day
12h 23m
Waxing Gibbous, 99% of the Moon is Illuminated
Sep 18
Waxing Gibbous
Sep 19
Full
Sep 26
Last Quarter
Oct 4
New
Oct 11
First Quarter

Hourly Weather History & Observations

Time (EDT) Temp. Dew Point Humidity Pressure Visibility Wind Dir Wind Speed Gust Speed Precip Events Conditions
12:53 AM 52.0 °F 46.9 °F 83% 30.05 in 10.0 mi South 5.8 mph - N/A   Clear
1:53 AM 52.0 °F 48.0 °F 86% 30.04 in 10.0 mi SSW 9.2 mph - N/A   Clear
2:53 AM 52.0 °F 48.9 °F 89% 30.03 in 8.0 mi South 4.6 mph - N/A   Partly Cloudy
3:53 AM 53.1 °F 50.0 °F 89% 30.01 in 5.0 mi South 4.6 mph - 0.00 in Rain Light Rain
4:02 AM 53.6 °F 51.8 °F 94% 30.00 in 6.0 mi South 4.6 mph - 0.00 in Rain Light Rain
4:53 AM 53.1 °F 51.1 °F 93% 29.98 in 5.0 mi Calm Calm - 0.00 in   Overcast
5:53 AM 54.0 °F 52.0 °F 93% 29.97 in 5.0 mi SSE 5.8 mph - N/A   Overcast
6:53 AM 55.0 °F 53.1 °F 93% 29.96 in 5.0 mi SSE 5.8 mph - N/A   Overcast
7:53 AM 55.9 °F 53.1 °F 90% 29.96 in 6.0 mi East 3.5 mph - N/A   Overcast
8:53 AM 57.0 °F 54.0 °F 89% 29.95 in 5.0 mi Calm Calm - 0.00 in   Overcast
9:53 AM 57.9 °F 55.0 °F 90% 29.95 in 7.0 mi SE 4.6 mph - N/A   Overcast
10:53 AM 57.9 °F 55.9 °F 93% 29.94 in 8.0 mi SSE 5.8 mph - 0.00 in   Overcast
11:50 AM 59.0 °F 55.4 °F 88% 29.93 in 10.0 mi South 8.1 mph - N/A   Overcast
11:53 AM 59.0 °F 55.9 °F 90% 29.94 in 10.0 mi South 6.9 mph - N/A   Overcast
12:53 PM 61.0 °F 57.0 °F 87% 29.93 in 10.0 mi South 5.8 mph - N/A   Overcast
1:30 PM 62.6 °F 57.2 °F 82% 29.90 in 10.0 mi SSE 5.8 mph - N/A   Overcast
1:50 PM 62.6 °F 57.2 °F 82% 29.90 in 10.0 mi South 6.9 mph - N/A   Overcast
1:53 PM 63.0 °F 57.0 °F 81% 29.90 in 10.0 mi South 6.9 mph - N/A   Overcast
2:53 PM 66.0 °F 57.9 °F 75% 29.88 in 10.0 mi SSE 6.9 mph - N/A   Mostly Cloudy
3:32 PM 64.4 °F 57.2 °F 77% 29.86 in 10.0 mi SSE 9.2 mph - N/A   Overcast
3:53 PM 64.9 °F 57.9 °F 78% 29.88 in 10.0 mi South 8.1 mph - N/A   Overcast
4:37 PM 66.2 °F 59.0 °F 78% 29.85 in 10.0 mi SSE 6.9 mph - N/A   Overcast
4:53 PM 66.0 °F 59.0 °F 78% 29.85 in 10.0 mi SSE 9.2 mph - N/A   Overcast
5:12 PM 66.2 °F 59.0 °F 78% 29.84 in 10.0 mi SSE 9.2 mph - N/A   Overcast
5:53 PM 64.9 °F 59.0 °F 81% 29.85 in 10.0 mi South 8.1 mph - N/A   Overcast
6:39 PM 64.4 °F 59.0 °F 83% 29.84 in 9.0 mi South 5.8 mph - N/A   Overcast
6:53 PM 64.0 °F 59.0 °F 84% 29.85 in 9.0 mi South 6.9 mph - N/A   Overcast
7:03 PM 64.4 °F 59.0 °F 83% 29.84 in 9.0 mi South 6.9 mph - N/A   Overcast
7:53 PM 64.0 °F 59.0 °F 84% 29.85 in 8.0 mi SE 5.8 mph - N/A   Overcast
8:53 PM 63.0 °F 59.0 °F 87% 29.85 in 8.0 mi SE 5.8 mph - N/A   Overcast
9:04 PM 62.6 °F 59.0 °F 88% 29.85 in 8.0 mi SE 5.8 mph - N/A   Overcast
9:53 PM 63.0 °F 59.0 °F 87% 29.86 in 7.0 mi SSE 4.6 mph - N/A   Overcast
10:08 PM 62.6 °F 59.0 °F 88% 29.86 in 7.0 mi SSE 4.6 mph - N/A   Overcast
10:28 PM 62.6 °F 60.8 °F 94% 29.86 in 6.0 mi South 4.6 mph - N/A   Overcast
10:44 PM 62.6 °F 60.8 °F 94% 29.85 in 7.0 mi South 5.8 mph - N/A   Overcast
10:53 PM 63.0 °F 60.1 °F 90% 29.86 in 7.0 mi South 6.9 mph - N/A   Overcast
11:01 PM 62.6 °F 60.8 °F 94% 29.85 in 7.0 mi South 5.8 mph - N/A   Overcast
11:53 PM 63.0 °F 60.1 °F 90% 29.86 in 6.0 mi South 5.8 mph - N/A   Overcast